TimeCDT,TemperatureF,Dew PointF,Humidity,Sea Level PressureIn,VisibilityMPH,Wind Direction,Wind SpeedMPH,Gust SpeedMPH,PrecipitationIn,Events,Conditions,WindDirDegrees,DateUTC
12:13 AM,62.6,57.2,82,29.86,10.0,NE,6.9,-,N/A,,Overcast,50,2013-06-17 05:13:00
12:33 AM,60.8,55.4,82,29.86,10.0,ENE,11.5,-,N/A,,Overcast,60,2013-06-17 05:33:00
12:54 AM,60.8,55.4,82,29.86,10.0,ENE,6.9,-,N/A,,Overcast,70,2013-06-17 05:54:00
1:13 AM,60.8,55.4,82,29.87,10.0,ENE,8.1,-,N/A,,Overcast,60,2013-06-17 06:13:00
1:33 AM,60.8,55.4,82,29.87,10.0,ENE,8.1,-,N/A,,Overcast,60,2013-06-17 06:33:00
1:54 AM,60.8,55.4,82,29.87,10.0,ENE,8.1,-,N/A,,Overcast,60,2013-06-17 06:54:00
2:13 AM,60.8,55.4,82,29.88,10.0,ENE,6.9,-,N/A,,Overcast,70,2013-06-17 07:13:00
2:33 AM,60.8,55.4,82,29.88,10.0,ENE,9.2,-,N/A,,Overcast,60,2013-06-17 07:33:00
2:54 AM,60.8,55.4,82,29.89,10.0,ENE,6.9,-,N/A,,Overcast,60,2013-06-17 07:54:00
3:13 AM,60.8,55.4,82,29.89,10.0,ENE,8.1,-,N/A,,Overcast,60,2013-06-17 08:13:00
3:33 AM,60.8,55.4,82,29.89,10.0,ENE,9.2,-,N/A,,Overcast,60,2013-06-17 08:33:00
3:54 AM,60.8,53.6,77,29.89,10.0,ENE,8.1,-,N/A,,Overcast,70,2013-06-17 08:54:00
4:13 AM,59.0,53.6,82,29.89,10.0,ENE,5.8,-,N/A,,Overcast,70,2013-06-17 09:13:00
4:33 AM,59.0,53.6,82,29.90,10.0,ENE,6.9,-,N/A,,Overcast,60,2013-06-17 09:33:00
4:53 AM,57.2,53.6,88,29.91,10.0,NE,6.9,-,N/A,,Scattered Clouds,50,2013-06-17 09:53:00
5:13 AM,57.2,53.6,88,29.91,10.0,NE,5.8,-,N/A,,Mostly Cloudy,50,2013-06-17 10:13:00
5:33 AM,57.2,53.6,88,29.92,10.0,NE,8.1,-,N/A,,Overcast,50,2013-06-17 10:33:00
5:53 AM,57.2,53.6,88,29.92,10.0,ENE,9.2,-,N/A,,Overcast,60,2013-06-17 10:53:00
6:14 AM,57.2,53.6,88,29.93,10.0,ENE,8.1,-,N/A,,Overcast,60,2013-06-17 11:14:00
6:33 AM,57.2,53.6,88,29.93,10.0,ENE,9.2,-,N/A,,Overcast,60,2013-06-17 11:33:00
6:53 AM,57.2,53.6,88,29.94,10.0,ENE,9.2,-,N/A,,Overcast,60,2013-06-17 11:53:00
7:14 AM,57.2,53.6,88,29.95,10.0,ENE,9.2,-,N/A,,Overcast,70,2013-06-17 12:14:00
7:33 AM,57.2,53.6,88,29.95,10.0,NE,8.1,-,N/A,,Overcast,50,2013-06-17 12:33:00
7:53 AM,59.0,53.6,82,29.96,10.0,ENE,6.9,-,N/A,,Overcast,60,2013-06-17 12:53:00
8:14 AM,59.0,51.8,77,29.97,10.0,NE,6.9,-,N/A,,Overcast,50,2013-06-17 13:14:00
8:34 AM,60.8,51.8,72,29.98,10.0,ENE,6.9,-,N/A,,Overcast,70,2013-06-17 13:34:00
8:53 AM,60.8,50.0,68,29.98,10.0,East,8.1,-,N/A,,Mostly Cloudy,80,2013-06-17 13:53:00
9:13 AM,60.8,50.0,68,29.98,10.0,ENE,5.8,-,N/A,,Clear,60,2013-06-17 14:13:00
9:34 AM,60.8,51.8,72,29.99,10.0,East,6.9,-,N/A,,Mostly Cloudy,90,2013-06-17 14:34:00
9:53 AM,62.6,50.0,63,29.99,10.0,East,5.8,-,N/A,,Mostly Cloudy,80,2013-06-17 14:53:00
10:13 AM,62.6,48.2,59,29.99,10.0,ENE,8.1,-,N/A,,Overcast,70,2013-06-17 15:13:00
10:34 AM,62.6,48.2,59,29.99,10.0,East,8.1,-,N/A,,Overcast,80,2013-06-17 15:34:00
10:53 AM,62.6,48.2,59,30.00,10.0,NE,10.4,-,N/A,,Overcast,40,2013-06-17 15:53:00
11:13 AM,62.6,48.2,59,30.01,10.0,NE,8.1,-,N/A,,Overcast,40,2013-06-17 16:13:00
11:34 AM,62.6,48.2,59,30.02,10.0,NNE,12.7,-,N/A,,Overcast,20,2013-06-17 16:34:00
11:53 AM,62.6,48.2,59,30.02,10.0,NNE,9.2,-,N/A,,Overcast,30,2013-06-17 16:53:00
12:13 PM,62.6,48.2,59,30.02,10.0,North,10.4,-,N/A,,Overcast,10,2013-06-17 17:13:00
12:34 PM,62.6,48.2,59,30.03,10.0,North,9.2,-,N/A,,Overcast,10,2013-06-17 17:34:00
12:53 PM,62.6,48.2,59,30.03,10.0,NNE,12.7,-,N/A,,Overcast,20,2013-06-17 17:53:00
1:13 PM,62.6,48.2,59,30.04,10.0,North,9.2,-,N/A,,Scattered Clouds,10,2013-06-17 18:13:00
1:34 PM,62.6,48.2,59,30.04,10.0,North,5.8,-,N/A,,Scattered Clouds,360,2013-06-17 18:34:00
1:53 PM,64.4,48.2,56,30.04,10.0,NNE,3.5,-,N/A,,Mostly Cloudy,20,2013-06-17 18:53:00
2:13 PM,64.4,48.2,56,30.04,10.0,North,8.1,-,N/A,,Overcast,10,2013-06-17 19:13:00
2:34 PM,64.4,48.2,56,30.04,10.0,North,6.9,-,N/A,,Overcast,350,2013-06-17 19:34:00
2:53 PM,64.4,48.2,56,30.04,10.0,NNW,3.5,-,N/A,,Scattered Clouds,330,2013-06-17 19:53:00
3:13 PM,64.4,48.2,56,30.04,10.0,NW,5.8,-,N/A,,Clear,310,2013-06-17 20:13:00
3:33 PM,64.4,48.2,56,30.04,10.0,WNW,6.9,-,N/A,,Clear,300,2013-06-17 20:33:00
3:53 PM,66.2,48.2,52,30.04,10.0,North,5.8,-,N/A,,Clear,350,2013-06-17 20:53:00
4:13 PM,66.2,46.4,49,30.04,10.0,NNW,5.8,-,N/A,,Clear,340,2013-06-17 21:13:00
4:33 PM,66.2,44.6,46,30.04,10.0,NNW,4.6,-,N/A,,Clear,330,2013-06-17 21:33:00
4:54 PM,66.2,44.6,46,30.04,10.0,North,6.9,-,N/A,,Clear,360,2013-06-17 21:54:00
5:13 PM,66.2,44.6,46,30.04,10.0,North,9.2,-,N/A,,Clear,350,2013-06-17 22:13:00
5:33 PM,68.0,42.8,40,30.04,10.0,North,6.9,-,N/A,,Clear,360,2013-06-17 22:33:00
5:54 PM,69.8,46.4,43,30.04,10.0,Calm,Calm,-,N/A,,Clear,0,2013-06-17 22:54:00
6:13 PM,66.2,50.0,56,30.04,10.0,SSE,8.1,-,N/A,,Clear,150,2013-06-17 23:13:00
6:33 PM,66.2,48.2,52,30.04,10.0,SSE,5.8,-,N/A,,Clear,160,2013-06-17 23:33:00
6:54 PM,66.2,48.2,52,30.03,10.0,SSE,3.5,-,N/A,,Clear,160,2013-06-17 23:54:00
7:13 PM,66.2,48.2,52,30.03,10.0,Calm,Calm,-,N/A,,Clear,0,2013-06-18 00:13:00
7:33 PM,66.2,50.0,56,30.03,10.0,South,3.5,-,N/A,,Clear,170,2013-06-18 00:33:00
7:54 PM,66.2,50.0,56,30.03,10.0,South,3.5,-,N/A,,Clear,170,2013-06-18 00:54:00
8:13 PM,66.2,50.0,56,30.03,10.0,Calm,Calm,-,N/A,,Clear,0,2013-06-18 01:13:00
8:33 PM,66.2,48.2,52,30.03,10.0,Calm,Calm,-,N/A,,Clear,0,2013-06-18 01:33:00
8:53 PM,66.2,51.8,60,30.03,10.0,Calm,Calm,-,N/A,,Clear,0,2013-06-18 01:53:00
9:13 PM,66.2,51.8,60,30.04,10.0,Calm,Calm,-,N/A,,Clear,0,2013-06-18 02:13:00
9:34 PM,64.4,53.6,68,30.05,10.0,Calm,Calm,-,N/A,,Clear,0,2013-06-18 02:34:00
9:53 PM,64.4,55.4,73,30.05,7.0,Calm,Calm,-,N/A,,Clear,0,2013-06-18 02:53:00
10:13 PM,64.4,55.4,73,30.05,7.0,Calm,Calm,-,N/A,,Clear,0,2013-06-18 03:13:00
10:34 PM,62.6,53.6,72,30.06,7.0,Calm,Calm,-,N/A,,Clear,0,2013-06-18 03:34:00
10:53 PM,62.6,53.6,72,30.06,2.5,Calm,Calm,-,N/A,,Haze,0,2013-06-18 03:53:00
11:13 PM,62.6,55.4,77,30.06,4.0,Calm,Calm,-,N/A,,Haze,0,2013-06-18 04:13:00
11:34 PM,62.6,57.2,82,30.07,5.0,Calm,Calm,-,N/A,,Haze,0,2013-06-18 04:34:00
11:53 PM,62.6,53.6,72,30.07,7.0,Calm,Calm,-,N/A,,Clear,0,2013-06-18 04:53:00